Regional Weather Roundup
Issued by NWS Little Rock, AR

Home | Current Version | Previous Version | Graphics & Text | Print | Product List | Glossary On
Versions: 1 2 3 4 5 6 7 8 9 10 11 12 13 14 15 16 17 18 19 20 21 22 23 24 25 26 27 28 29 30 31
000
ASUS44 KLZK 200305
RWRLZK

WEATHER ROUNDUP FOR ARKANSAS
NATIONAL WEATHER SERVICE LITTLE ROCK AR
1000 PM CDT SAT MAY 19 2018

NOTE: "FAIR" INDICATES FEW OR NO CLOUDS BELOW 12,000 FEET WITH NO
SIGNIFICANT WEATHER AND/OR OBSTRUCTIONS TO VISIBILITY.

ARZ001-003-010-029-200400-
NORTHWEST ARKANSAS

CITY           SKY/WX    TMP DP  RH WIND       PRES   REMARKS
FAYETTEVILLE   CLOUDY    73  66  78 CALM      30.00R
FORT SMITH     MOCLDY    80  70  71 E3        29.95R
HARRISON       CLEAR     74  65  73 CALM      30.00R
BENTONVILLE    CLOUDY    78  66  66 S5        30.01R
ROGERS         CLOUDY    76  65  68 S5        30.01R
SILOAM SPGS    PTCLDY    75  67  76 SE7       29.99R
HIGHFILL       CLOUDY    76  65  68 S5        29.99R
$$

ARZ004-005-016-200400-
NORTH CENTRAL ARKANSAS

CITY           SKY/WX    TMP DP  RH WIND       PRES   REMARKS
BATESVILLE     CLEAR     73  67  81 SE3       29.99F
FLIPPIN        CLEAR     75  65  70 VRB3      29.98R
MTN HOME       CLEAR     73  64  73 S10G17    29.97S
$$

ARZ040-041-200400-
WEST CENTRAL ARKANSAS

CITY           SKY/WX    TMP DP  RH WIND       PRES   REMARKS
MENA           CLEAR     77  73  88 CALM      29.99R
MOUNT IDA      PTCLDY    77  73  87 CALM      29.96R
$$

ARZ009-017-025-026-028-200400-
NORTHEAST ARKANSAS

CITY           SKY/WX    TMP DP  RH WIND       PRES   REMARKS
CORNING        FAIR      73  66  78 SE10      29.99S
JONESBORO      FAIR      72  69  90 E8        30.00R
NEWPORT        FAIR      74  69  85 NE6       29.99R
WALNUT RIDGE     N/A     71  69  93 E7        29.99S
BLYTHEVILLE    FAIR      70  66  87 S8        30.01S
$$

ARZ022-023-033-042-044-200400-
CENTRAL ARKANSAS

CITY           SKY/WX    TMP DP  RH WIND       PRES   REMARKS
LITTLE ROCK    PTCLDY    77  70  79 S5        29.97R
N LITTLE ROCK    N/A     80  70  71 CALM      29.93R
JACKSONVILLE   CLOUDY    78  70  76 CALM      29.97R
CONWAY           N/A     79  72  78 CALM      29.96R
SEARCY         FAIR      77  71  82 N3        29.98R
HOT SPRINGS    CLEAR     79  71  76 E6        29.97R
RUSSELLVILLE   CLEAR     78  69  73 CALM      29.95R
CLINTON        FAIR      73  70  88 CALM      29.97S
$$

ARZ036-200400-
EAST ARKANSAS

CITY           SKY/WX    TMP DP  RH WIND       PRES   REMARKS
WEST MEMPHIS   FAIR      75  65  70 E5        30.00R
$$

ARZ050-053-066-070-073-200400-
SOUTHWEST ARKANSAS

CITY           SKY/WX    TMP DP  RH WIND       PRES   REMARKS
ARKADELPHIA    FAIR      74  72  93 CALM      29.97R FOG
CAMDEN         FAIR      75  70  83 CALM      29.96R
TEXARKANA      CLEAR     78  71  79 SE5       29.95R
EL DORADO      FAIR      77  74  90 CALM      29.97R
DE QUEEN       CLEAR     74  72  93 NE3       29.93R
$$

ARZ056-057-069-200400-
SOUTHEAST ARKANSAS

CITY           SKY/WX    TMP DP  RH WIND       PRES   REMARKS
PINE BLUFF     FAIR      78  68  71 S6        29.97R
STUTTGART      FAIR      81  69  67 S7        29.98R
MONTICELLO     FAIR      77  71  82 CALM      29.98R

$$






USA.gov is the U.S. government's official web portal to all federal, state and local government web resources and services.